DMSP 5D-2 F13 DEB, 40480

Orbit data source: Space-Track

DMSP 5D-2 F13 DEB, 40480 is space debris in SSO originally from a launch on Fri, 24 Mar 1995 UTC launched from the Air Force Western Test Range (AFWTR). Debris objects in space refer to the collection of defunct objects orbiting the Earth. Examples of debris include non-operational satellites, rocket bodies, and fragments generated from explosions, collisions, or faulty payload assembly.

Loading next visibility...
Identifier
40480, 1995-015BY
Orbit
SSO
Country
Flag of USUS
Related business
Manufacturer
Unknown
Mission
Spacecraft
Bus & Motor
Unknown
Mass
Unknown
Launch date (UTC)
1995-03-24 (31 years ago)
Launch vehicle
Unknown
Launch site
Air Force Western Test Range (AFWTR)
Object type
Payload
Rocket body
Debris
Shape & HBR
Unknown shape, 0.1 m
Radar Cross Section
Medium (>0.1 m² and <1 m²)

Expand to show TLE details & history
Last TLE update: 3 days ago

TLE from 3 days ago
0 DMSP 5D-2 F13 DEB
1 40480U 95015BY  26253.40547300  .00014423  00000-0  28988-2 0  9998
2 40480  98.7174 216.3442 0038853  87.5680 272.9967 14.61247015593311
Epoch: 2026-09-10T09:43Z
TLE epoch observation values (Epoch: 2026-09-10T09:43:52.867Z)
Latitude
0.00004°
Longitude
80.93027°
Altitude
690.792 km
Speed
7.512 km/s
True Right ascension
14h 25m 22s
True Declination
0° 00' 00"
Sunlit
Object was in daylight at epoch
Visualization orbit readout
Latitude
Unknown
Longitude
Unknown
Altitude
Unknown
Speed
Unknown
Apparent Right ascension
Unknown
Apparent Declination
Unknown
Sunlit
N/A
Visualization observer readout
Local Sidereal Time
21:51:32
Azimuth
Unknown
Elevation
Unknown
Doppler factor
Unknown
Orbital elements
Apogee altitude
713.702 km
Perigee altitude
658.807 km
Semi-major axis
7,064.391 km
Eccentricity
0.00389
Inclination
98.7174°
RAAN
216.3442°
Arg. of periapsis
87.568°
True anomaly
272.55198°
Mean anomaly
272.9967°
Eccentric anomaly
272.77435°
Mean motion
3.65537 °/min
Orbital period
98.49 mins
BSTAR
0.0028988
Loading maneuver chart data...
Computing Atmospheric mass density...

Documentation

Showing up to 5 results
|